Date,TemperatureHighF,TemperatureAvgF,TemperatureLowF,DewpointHighF,DewpointAvgF,DewpointLowF,HumidityHigh,HumidityAvg,HumidityLow,PressureMaxIn,PressureMinIn,WindSpeedMaxMPH,WindSpeedAvgMPH,GustSpeedMaxMPH,PrecipitationSumIn
2013-10-1,72.6,60.2,51.6,56.7,52.2,47.1,99,77,43,30.21,30.05,3,1,4,0.00
2013-10-2,74.4,62.9,55.5,55.7,51.9,46.2,99,70,38,30.22,30.06,3,1,6,0.00
2013-10-3,73.0,64.3,57.5,58.4,53.8,51.0,87,69,53,30.21,30.07,2,1,4,0.00
2013-10-4,77.7,65.6,56.6,61.2,56.1,52.5,99,74,47,30.22,30.06,3,1,6,0.00
2013-10-5,77.9,66.6,59.3,60.3,57.6,53.1,99,75,47,30.22,30.03,3,1,4,0.00
2013-10-6,71.0,66.0,61.5,60.1,57.7,56.2,94,75,60,30.10,29.92,4,1,8,0.00
2013-10-7,63.1,57.7,49.2,62.3,52.2,40.0,99,83,57,30.13,29.85,8,2,11,1.94
2013-10-8,61.8,50.0,41.9,42.2,38.8,34.2,89,67,42,30.34,30.13,5,2,9,0.00
2013-10-9,68.5,50.8,40.6,41.5,37.3,26.9,99,64,25,30.36,30.11,4,2,6,0.00
2013-10-10,64.4,54.4,45.1,51.9,41.1,27.6,81,62,39,30.25,30.05,5,3,11,0.00
2013-10-11,68.9,59.4,53.0,48.4,43.3,36.2,80,57,34,30.07,29.94,8,3,13,0.00
2013-10-12,63.6,58.4,53.9,57.6,53.0,44.2,99,83,62,30.16,30.03,3,1,8,0.00
2013-10-13,65.8,59.2,57.2,61.7,58.1,55.9,99,96,76,30.29,30.16,2,0,5,0.06
2013-10-14,62.6,57.1,53.6,60.6,56.5,53.3,99,98,84,30.32,30.20,3,0,5,0.09
2013-10-15,64.5,55.1,48.7,55.0,49.6,44.2,99,83,57,30.29,30.08,2,1,4,0.00
2013-10-16,63.8,56.2,49.2,55.0,49.3,45.9,96,78,60,30.18,29.97,2,1,4,0.00
2013-10-18,53.9,53.2,52.8,52.7,52.4,52.0,98,97,95,30.04,30.02,2,0,3,0.00
2013-10-19,57.7,52.9,47.6,56.0,47.1,30.3,99,83,37,30.04,29.85,5,1,14,0.00
2013-10-20,57.5,46.0,35.7,34.0,29.2,18.8,81,54,30,30.19,30.01,8,2,10,0.01
2013-10-21,57.7,49.8,42.9,46.9,38.1,29.6,87,65,53,30.21,30.03,4,1,6,0.00
2013-10-22,61.5,54.0,50.0,46.9,37.4,29.1,87,55,31,30.06,29.83,8,2,14,0.01
2013-10-23,50.3,42.2,32.3,40.2,27.8,17.0,86,58,31,30.14,29.79,11,4,19,0.01
2013-10-24,43.3,36.2,30.5,32.6,21.8,17.2,97,56,40,30.27,30.12,11,3,16,0.00
2013-10-25,37.7,31.3,26.2,33.1,20.4,14.0,99,66,39,30.49,30.27,11,3,15,0.01
2013-10-26,49.8,38.0,24.0,28.2,17.0,8.8,77,45,22,30.49,30.09,6,1,10,0.00
2013-10-27,60.4,49.4,41.3,38.4,27.2,14.2,68,44,17,30.19,30.03,13,3,20,0.00
2013-10-28,56.1,52.1,49.6,49.0,44.0,38.3,91,74,64,30.33,30.16,4,1,9,0.00
2013-10-29,63.8,54.9,47.8,49.7,45.2,40.8,99,73,43,30.39,30.24,4,2,8,0.00
2013-10-30,68.1,59.1,52.1,50.7,46.3,43.3,85,64,41,30.33,30.14,6,1,11,0.02
2013-10-31,59.1,56.4,55.0,56.7,51.3,47.7,99,84,70,30.22,29.88,8,2,16,0.01